Regional Weather Roundup
Issued by NWS Mt. Holly, NJ

Home | Current Version | Previous Version | Text Only | Print | Product List | Glossary On
Versions: 1 2 3 4 5 6 7 8 9 10 11 12 13 14 15 16 17 18 19 20 21 22 23 24 25 26 27 28 29 30 31 32 33 34 35 36 37 38 39 40 41 42 43 44 45 46 47 48 49
000
ASUS41 KPHI 271312
RWRPHI

REGIONAL WEATHER ROUNDUP
NATIONAL WEATHER SERVICE MOUNT HOLLY NJ
900 AM EDT WED JUL 27 2016

NOTE:  "FAIR" INDICATES FEW OR NO CLOUDS BELOW 12,000 FEET WITH NO
SIGNIFICANT WEATHER AND/OR OBSTRUCTIONS TO VISIBILITY.

 * = STATION DOES NOT REPORT PRECIPITATION (E.G. RAIN, SNOW, ETC.)
        OR FOG.

NJZ015>026-271400-
SOUTHERN NEW JERSEY

CITY           SKY/WX    TMP DP  RH WIND       PRES   REMARKS
POMONA         MOSUNNY   81  67  62 E8        29.94S
WILDWOOD*      CLOUDY    83  75  77 SE7       29.95R HX  90
MILLVILLE      CLOUDY    83  69  62 SE6       29.95R
WRIGHTSTOWN    CLOUDY    79  66  64 NE7       29.94R
MOUNT HOLLY    SUNNY     79  66  64 VRB5      29.96R
TRENTON        CLOUDY    81  65  58 VRB3      29.97R

$$
NJZ001>014-271400-
NORTHERN NEW JERSEY

CITY           SKY/WX    TMP DP  RH WIND       PRES   REMARKS
SUSSEX         SUNNY     75  65  70 CALM      29.99S
ANDOVER*         N/A     74  64  71 CALM      30.00S
MORRISTOWN     PTSUNNY   77  64  65 CALM      29.97F
NEWARK         MOSUNNY   82  61  48 NE8       29.95F
TETERBORO      SUNNY     80  60  50 NE3       29.95S
CALDWELL       SUNNY     78  64  61 CALM      29.97F
SOMERVILLE     SUNNY     78  65  63 CALM      29.95S
ALLAIRE*       CLOUDY    81  64  56 NE7       29.98R
TOMS RIVER*    CLOUDY    77  70  79 NE5       29.97R

$$
PAZ043-044-047-054-055-060>062-066>071-271400-
EASTERN PENNSYLVANIA

CITY           SKY/WX    TMP DP  RH WIND       PRES   REMARKS
PHILADELPHIA   MOSUNNY   82  63  52 NE8G20    29.97R
NORTH PHILA    SUNNY     82  66  58 NE6       29.98R
BLUE BELL*     SUNNY     79  64  61 NE3       29.97R
DOYLESTOWN     SUNNY     77  64  64 CALM      29.98R
QUAKERTOWN*    SUNNY     79  64  61 CALM      30.00S
PERKASIE*      FAIR      77  64  65 CALM      30.00S
POTTSTOWN      SUNNY     79  64  60 N6        29.99S
LANCASTER      MOSUNNY   79  65  62 E8        29.98S
COATESVILLE    SUNNY     79  64  61 NE6       30.00S
READING        SUNNY     79  63  57 N7        29.97F
ALLENTOWN      SUNNY     77  64  64 CALM      29.99S
MOUNT POCONO   SUNNY     74  56  53 N5        30.05R
HAZLETON       SUNNY     73  61  64 N5        30.07S
LEHIGHTON      FAIR      72  63  73 CALM      30.01S
WILKES BARRE   SUNNY     72  62  71 CALM      30.02S

$$
DEZALL-MDZ008-012-015-019-020-271400-
DELAWARE AND EASTERN MARYLAND

CITY           SKY/WX    TMP DP  RH WIND       PRES   REMARKS
WILMINGTON     SUNNY     82  66  58 E9        29.96R
DOVER          LGT RAIN  84  84 100 E2        29.93R HX 104
GEORGETOWN     SUNNY     83  75  77 W5        29.94S HX  90
ABERDEEN       PTSUNNY   82  68  61 NE6       29.94S
PATUXENT       PTSUNNY   84  73  69 CALM      29.95R HX  90
OCEAN CITY     LGT RAIN  80  77  90 CALM      29.94F
WALLOPS ISLAND PTSUNNY   84  79  85 N3        29.95R HX  96
CAMBRIDGE      SUNNY     82  73  74 CALM      29.94S
SALISBURY      PTSUNNY   79  77  94 S3        29.94S

$$
PAZ001-021-NYZ056-072-MDZ011-DCZ001-271400-
OTHER NEARBY LOCATIONS

CITY           SKY/WX    TMP DP  RH WIND       PRES   REMARKS
HARRISBURG     MOSUNNY   81  65  58 CALM      29.98S
STATE COLLEGE  SUNNY     72  63  73 CALM      30.05R
WILLIAMSPORT   SUNNY     73  62  68 W8        30.01S
BINGHAMTON     SUNNY     70  61  73 W6        30.04S
NEW YORK CITY  SUNNY     80  60  50 VRB3      29.98F
BALTIMORE      CLOUDY    83  67  58 N5        29.95R
WASHINGTON DC  PTSUNNY   85  68  56 N7        29.96R

$$



USA.gov is the U.S. government's official web portal to all federal, state and local government web resources and services.